When you browse on this site, cookies collect data to enhance your experience and personalize the content and advertising you see.
Visit our Privacy Policy to learn more. By continuing to use the site, you agree to this use of cookies and data.
  • In Germany
  • List of Countries
  • For 7 days
  • Water Temperature
  • Weather Map
  • Weather Widgets
  • user-avatar
    Login

    Hourly Weather Yeghegnadzor

    Today, 23 September, Monday

    Time Temperature Precipitation Wind Pressure Humidity
    00:00 +13°C° 0 mm 1 mps 655 mmHg 49%
    01:00 +12°C° 0 mm 0 mps 654 mmHg 50%
    02:00 +11°C° 0 mm 0 mps 654 mmHg 51%
    03:00 +11°C° 0 mm 0 mps 654 mmHg 52%
    04:00 +11°C° 0 mm 0 mps 654 mmHg 53%
    05:00 +12°C° 0 mm 1 mps 654 mmHg 55%
    06:00 +11°C° 0 mm 1 mps 654 mmHg 56%
    07:00 +13°C° 0 mm 1 mps 654 mmHg 50%
    08:00 +16°C° 0 mm 1 mps 655 mmHg 45%
    09:00 +19°C° 0 mm 1 mps 656 mmHg 37%
    10:00 +19°C° 0 mm 2 mps 655 mmHg 35%
    11:00 +20°C° 0 mm 2 mps 655 mmHg 33%
    12:00 +21°C° 0 mm 3 mps 655 mmHg 31%
    13:00 +23°C° 0 mm 2 mps 655 mmHg 29%
    14:00 +23°C° 0 mm 2 mps 654 mmHg 27%
    15:00 +24°C° 0 mm 2 mps 654 mmHg 25%
    16:00 +21°C° 0 mm 2 mps 653 mmHg 29%
    17:00 +21°C° 0 mm 1 mps 653 mmHg 33%
    18:00 +19°C° 0 mm 1 mps 652 mmHg 37%
    19:00 +19°C° 0 mm 1 mps 653 mmHg 37%
    20:00 +18°C° 0 mm 1 mps 653 mmHg 37%
    21:00 +18°C° 0 mm 1 mps 653 mmHg 37%
    22:00 +16°C° 0 mm 1 mps 653 mmHg 38%
    23:00 +16°C° 0 mm 1 mps 653 mmHg 39%

    Tomorrow, 24 September, Tuesday

    Time Temperature Precipitation Wind Pressure Humidity
    00:00 +15°C° 0 mm 1 mps 653 mmHg 39%
    01:00 +15°C° 0 mm 1 mps 653 mmHg 40%
    02:00 +15°C° 0 mm 1 mps 653 mmHg 41%
    03:00 +14°C° 0 mm 1 mps 653 mmHg 43%
    04:00 +14°C° 0 mm 1 mps 653 mmHg 44%
    05:00 +13°C° 0 mm 1 mps 653 mmHg 46%
    06:00 +13°C° 0 mm 1 mps 653 mmHg 48%
    07:00 +15°C° 0 mm 1 mps 654 mmHg 42%
    08:00 +19°C° 0 mm 1 mps 654 mmHg 37%
    09:00 +21°C° 0 mm 1 mps 655 mmHg 31%
    10:00 +21°C° 0 mm 2 mps 655 mmHg 28%
    11:00 +23°C° 0 mm 2 mps 655 mmHg 25%
    12:00 +24°C° 0 mm 3 mps 655 mmHg 22%
    13:00 +25°C° 0 mm 3 mps 654 mmHg 20%
    14:00 +25°C° 0 mm 3 mps 654 mmHg 18%
    15:00 +26°C° 0 mm 3 mps 654 mmHg 16%
    16:00 +24°C° 0 mm 2 mps 653 mmHg 19%
    17:00 +22°C° 0 mm 1 mps 653 mmHg 23%
    18:00 +20°C° 0 mm 1 mps 652 mmHg 26%
    19:00 +20°C° 0 mm 1 mps 652 mmHg 27%
    20:00 +19°C° 0 mm 1 mps 653 mmHg 27%
    21:00 +18°C° 0 mm 2 mps 653 mmHg 28%
    22:00 +17°C° 0 mm 2 mps 653 mmHg 29%
    23:00 +17°C° 0 mm 2 mps 652 mmHg 29%

    Day after tomorrow, 25 September, Wednesday

    Time Temperature Precipitation Wind Pressure Humidity
    00:00 +16°C° 0 mm 1 mps 652 mmHg 30%
    01:00 +16°C° 0 mm 1 mps 652 mmHg 31%
    02:00 +15°C° 0 mm 1 mps 652 mmHg 32%
    03:00 +15°C° 0 mm 1 mps 652 mmHg 34%
    04:00 +15°C° 0 mm 1 mps 652 mmHg 35%
    05:00 +14°C° 0 mm 1 mps 652 mmHg 36%
    06:00 +14°C° 0 mm 1 mps 651 mmHg 37%
    07:00 +16°C° 0 mm 1 mps 652 mmHg 33%
    08:00 +20°C° 0 mm 1 mps 653 mmHg 28%
    09:00 +23°C° 0 mm 1 mps 654 mmHg 23%
    10:00 +24°C° 0 mm 2 mps 654 mmHg 21%
    11:00 +25°C° 0 mm 2 mps 654 mmHg 19%
    12:00 +26°C° 0 mm 3 mps 654 mmHg 17%
    13:00 +26°C° 0 mm 3 mps 654 mmHg 16%
    14:00 +27°C° 0 mm 2 mps 654 mmHg 16%
    15:00 +27°C° 0 mm 2 mps 654 mmHg 15%
    16:00 +25°C° 0 mm 2 mps 653 mmHg 18%
    17:00 +23°C° 0 mm 1 mps 653 mmHg 21%
    18:00 +21°C° 0 mm 1 mps 653 mmHg 24%
    19:00 +21°C° 0 mm 1 mps 653 mmHg 24%
    20:00 +21°C° 0 mm 1 mps 653 mmHg 24%
    21:00 +19°C° 0 mm 2 mps 654 mmHg 24%
    22:00 +19°C° 0 mm 2 mps 654 mmHg 24%
    23:00 +19°C° 0 mm 1 mps 653 mmHg 25%

    26 September, Thursday

    Time Temperature Precipitation Wind Pressure Humidity
    00:00 +19°C° 0 mm 1 mps 653 mmHg 25%
    01:00 +18°C° 0 mm 1 mps 653 mmHg 27%
    02:00 +18°C° 0 mm 1 mps 653 mmHg 28%
    03:00 +18°C° 0 mm 1 mps 653 mmHg 29%
    04:00 +16°C° 0 mm 1 mps 653 mmHg 30%
    05:00 +16°C° 0 mm 1 mps 653 mmHg 31%
    06:00 +16°C° 0 mm 1 mps 653 mmHg 32%
    07:00 +19°C° 0 mm 1 mps 654 mmHg 29%
    08:00 +21°C° 0 mm 2 mps 655 mmHg 26%
    09:00 +24°C° 0 mm 2 mps 656 mmHg 23%
    10:00 +25°C° 0 mm 3 mps 656 mmHg 22%
    11:00 +26°C° 0 mm 4 mps 656 mmHg 20%
    12:00 +27°C° 0 mm 5 mps 655 mmHg 19%
    13:00 +28°C° 0 mm 5 mps 655 mmHg 19%
    14:00 +28°C° 0 mm 5 mps 655 mmHg 18%
    15:00 +29°C° 0 mm 5 mps 654 mmHg 18%
    16:00 +27°C° 0 mm 4 mps 653 mmHg 21%
    17:00 +25°C° 0 mm 2 mps 653 mmHg 24%
    18:00 +23°C° 0 mm 1 mps 652 mmHg 27%
    19:00 +22°C° 0 mm 1 mps 652 mmHg 28%
    20:00 +22°C° 0 mm 1 mps 653 mmHg 29%
    21:00 +21°C° 0 mm 1 mps 653 mmHg 29%
    22:00 +21°C° 0 mm 1 mps 653 mmHg 30%
    23:00 +20°C° 0 mm 1 mps 653 mmHg 31%

    27 September, Friday

    Time Temperature Precipitation Wind Pressure Humidity
    00:00 +20°C° 0 mm 1 mps 653 mmHg 32%
    01:00 +19°C° 0 mm 1 mps 653 mmHg 33%
    02:00 +19°C° 0 mm 1 mps 652 mmHg 34%
    03:00 +18°C° 0 mm 1 mps 652 mmHg 36%
    04:00 +18°C° 0 mm 1 mps 652 mmHg 37%
    05:00 +16°C° 0 mm 1 mps 652 mmHg 38%
    06:00 +16°C° 0 mm 1 mps 652 mmHg 39%
    07:00 +20°C° 0 mm 1 mps 653 mmHg 34%
    08:00 +22°C° 0 mm 1 mps 654 mmHg 30%
    09:00 +25°C° 0 mm 1 mps 655 mmHg 25%
    10:00 +26°C° 0 mm 2 mps 655 mmHg 24%
    11:00 +27°C° 0 mm 3 mps 655 mmHg 22%
    12:00 +28°C° 0 mm 4 mps 655 mmHg 20%
    13:00 +28°C° 0 mm 4 mps 654 mmHg 20%
    14:00 +29°C° 0 mm 4 mps 654 mmHg 19%
    15:00 +29°C° 0 mm 4 mps 653 mmHg 19%
    16:00 +27°C° 0 mm 3 mps 653 mmHg 22%
    17:00 +25°C° 0 mm 2 mps 652 mmHg 25%
    18:00 +23°C° 0 mm 1 mps 652 mmHg 28%
    19:00 +22°C° 0 mm 1 mps 652 mmHg 29%
    20:00 +22°C° 0 mm 1 mps 652 mmHg 30%
    21:00 +21°C° 0 mm 1 mps 652 mmHg 32%
    22:00 +21°C° 0 mm 1 mps 652 mmHg 34%
    23:00 +20°C° 0 mm 1 mps 652 mmHg 36%

    28 September, Saturday

    Time Temperature Precipitation Wind Pressure Humidity
    00:00 +19°C° 0 mm 1 mps 652 mmHg 38%
    01:00 +19°C° 0 mm 1 mps 652 mmHg 39%
    02:00 +19°C° 0 mm 1 mps 652 mmHg 41%
    03:00 +18°C° 0 mm 1 mps 652 mmHg 43%
    04:00 +18°C° 0 mm 1 mps 651 mmHg 45%
    05:00 +16°C° 0 mm 1 mps 651 mmHg 48%
    06:00 +16°C° 0 mm 1 mps 651 mmHg 50%
    07:00 +18°C° 0 mm 2 mps 652 mmHg 44%
    08:00 +21°C° 0 mm 3 mps 652 mmHg 38%
    09:00 +24°C° 0 mm 3 mps 653 mmHg 33%
    10:00 +25°C° 0 mm 4 mps 653 mmHg 30%
    11:00 +26°C° 0 mm 5 mps 653 mmHg 27%
    12:00 +27°C° 0 mm 5 mps 654 mmHg 25%
    13:00 +27°C° 0 mm 6 mps 653 mmHg 26%
    14:00 +27°C° 0 mm 6 mps 653 mmHg 26%
    15:00 +27°C° 0 mm 6 mps 652 mmHg 27%
    16:00 +26°C° 0 mm 5 mps 652 mmHg 32%
    17:00 +23°C° 0 mm 4 mps 652 mmHg 37%
    18:00 +21°C° 0 mm 2 mps 652 mmHg 42%
    19:00 +20°C° 0 mm 2 mps 652 mmHg 46%
    20:00 +19°C° 0 mm 2 mps 652 mmHg 50%
    21:00 +18°C° 0 mm 2 mps 653 mmHg 54%
    22:00 +18°C° 0 mm 2 mps 653 mmHg 55%
    23:00 +19°C° 0 mm 1 mps 653 mmHg 57%
    Show more